Showing default

QIANFAN-156, 69115

Orbit data source: Space-Track

QIANFAN-156, 69115 is a Chinese payload satellite in LEO that was launched on Sun, 17 May 2026 UTC via a CHANG ZHENG 8 launch vehicle from the Wenchang Satellite Launch Center (WSC). Payload-class satellites include a variety of spacecraft equipped with specific instruments for various scientific and technological missions. These include communications satellites like Starlink; space stations such as the ISS; scientific satellites like the Hubble; Earth observation satellites from companies like Planet Labs, Umbra, and HawkEye 360; GPS; miniature CubeSats for education and research; and military/defense satellites.

Loading next visibility...
Identifier
69115, 2026-108M
Orbit
LEO
Country
Flag of CNCN / PRC
Related business
Manufacturer
SECM
Mission
Operational spacecraft
Bus & Motor
QIANFAN, Unknown motor
Mass
267 kg wet, ~267 kg dry
Launch date (UTC)
2026-05-17 (1 month ago)
Launch vehicle
CHANG ZHENG 8
Launch site
Wenchang Satellite Launch Center (WSC)
Object type
Payload
Rocket body
Debris
Shape & HBR
Unknown shape, 14.5 m
Radar Cross Section
Large (>1 m²)

Expand to show TLE details & history
Last TLE update: 1 day ago

TLE from 1 day ago
0 QIANFAN-156
1 69115U 26108M   26170.85474434  .00000048  00000-0  21426-4 0  9995
2 69115  89.0113  21.9133 0018835  96.9786 263.3538 14.04087717  4727
Epoch: 2026-06-19T20:30Z
TLE epoch observation values (Epoch: 2026-06-19T20:30:49.910Z)
Latitude
-0.00008°
Longitude
166.1276°
Altitude
884.313 km
Speed
7.409 km/s
True Right ascension
01h 27m 39s
True Declination
0° 00' 00"
Sunlit
Object was in daylight at epoch
Visualization orbit readout
Latitude
Unknown
Longitude
Unknown
Altitude
Unknown
Speed
Unknown
Apparent Right ascension
Unknown
Apparent Declination
Unknown
Sunlit
N/A
Visualization observer readout
Local Sidereal Time
07:12:09
Azimuth
Unknown
Elevation
Unknown
Doppler factor
Unknown
Orbital elements
Apogee altitude
890.313 km
Perigee altitude
862.984 km
Semi-major axis
7,254.785 km
Eccentricity
0.00188
Inclination
89.0113°
RAAN
21.9133°
Arg. of periapsis
96.9786°
True anomaly
263.13948°
Mean anomaly
263.3538°
Eccentric anomaly
263.24663°
Mean motion
3.51242 °/min
Orbital period
102.49 mins
BSTAR
0.000021426
Loading maneuver chart data...
Computing Atmospheric mass density...
Loading historical data...
Loading historical data...
Loading historical data...
Loading historical data...
Loading historical data...
Loading historical data...
Loading historical data...

Documentation

Showing up to 5 results
|